Year,Month,Day,Hour,Minute,Value (Times are PST for insolation in W/m^2)
2013,10,03,00,00,0.00
2013,10,03,00,01,0.00
2013,10,03,00,02,0.00
2013,10,03,00,03,0.00
2013,10,03,00,04,0.00
2013,10,03,00,05,0.00
2013,10,03,00,06,0.00
2013,10,03,00,07,0.00
2013,10,03,00,08,0.00
2013,10,03,00,09,0.00
2013,10,03,00,10,0.00
2013,10,03,00,11,0.00
2013,10,03,00,12,0.00
2013,10,03,00,13,0.00
2013,10,03,00,14,0.00
2013,10,03,00,15,0.00
2013,10,03,00,16,0.00
2013,10,03,00,17,0.00
2013,10,03,00,18,0.00
2013,10,03,00,19,0.00
2013,10,03,00,20,0.00
2013,10,03,00,21,0.00
2013,10,03,00,22,0.00
2013,10,03,00,23,0.00
2013,10,03,00,24,0.00
2013,10,03,00,25,0.00
2013,10,03,00,26,0.00
2013,10,03,00,27,0.00
2013,10,03,00,28,0.00
2013,10,03,00,29,0.00
2013,10,03,00,30,0.00
2013,10,03,00,31,0.00
2013,10,03,00,32,0.00
2013,10,03,00,33,0.00
2013,10,03,00,34,0.00
2013,10,03,00,35,0.00
2013,10,03,00,36,0.00
2013,10,03,00,37,0.00
2013,10,03,00,38,0.00
2013,10,03,00,39,0.00
2013,10,03,00,40,0.00
2013,10,03,00,41,0.00
2013,10,03,00,42,0.00
2013,10,03,00,43,0.00
2013,10,03,00,44,0.00
2013,10,03,00,45,0.00
2013,10,03,00,46,0.00
2013,10,03,00,47,0.00
2013,10,03,00,48,0.00
2013,10,03,00,49,0.00
2013,10,03,00,50,0.00
2013,10,03,00,51,0.00
2013,10,03,00,52,0.00
2013,10,03,00,53,0.00
2013,10,03,00,54,0.00
2013,10,03,00,55,0.00
2013,10,03,00,56,0.00
2013,10,03,00,57,0.00
2013,10,03,00,58,0.00
2013,10,03,00,59,0.00
2013,10,03,01,00,0.00
2013,10,03,01,01,0.00
2013,10,03,01,02,0.00
2013,10,03,01,03,0.00
2013,10,03,01,04,0.00
2013,10,03,01,05,0.00
2013,10,03,01,06,0.00
2013,10,03,01,07,0.00
2013,10,03,01,08,0.00
2013,10,03,01,09,0.00
2013,10,03,01,10,0.00
2013,10,03,01,11,0.00
2013,10,03,01,12,0.00
2013,10,03,01,13,0.00
2013,10,03,01,14,0.00
2013,10,03,01,15,0.00
2013,10,03,01,16,0.00
2013,10,03,01,17,0.00
2013,10,03,01,18,0.00
2013,10,03,01,19,0.00
2013,10,03,01,20,0.00
2013,10,03,01,21,0.00
2013,10,03,01,22,0.00
2013,10,03,01,23,0.00
2013,10,03,01,24,0.00
2013,10,03,01,25,0.00
2013,10,03,01,26,0.00
2013,10,03,01,27,0.00
2013,10,03,01,28,0.00
2013,10,03,01,29,0.00
2013,10,03,01,30,0.00
2013,10,03,01,31,0.00
2013,10,03,01,32,0.00
2013,10,03,01,33,0.00
2013,10,03,01,34,0.00
2013,10,03,01,35,0.00
2013,10,03,01,36,0.00
2013,10,03,01,37,0.00
2013,10,03,01,38,0.00
2013,10,03,01,39,0.00
2013,10,03,01,40,0.00
2013,10,03,01,41,0.00
2013,10,03,01,42,0.00
2013,10,03,01,43,0.00
2013,10,03,01,44,0.00
2013,10,03,01,45,0.00
2013,10,03,01,46,0.00
2013,10,03,01,47,0.00
2013,10,03,01,48,0.00
2013,10,03,01,49,0.00
2013,10,03,01,50,0.00
2013,10,03,01,51,0.00
2013,10,03,01,52,0.00
2013,10,03,01,53,0.00
2013,10,03,01,54,0.00
2013,10,03,01,55,0.00
2013,10,03,01,56,0.00
2013,10,03,01,57,0.00
2013,10,03,01,58,0.00
2013,10,03,01,59,0.00
2013,10,03,02,00,0.00
2013,10,03,02,01,0.00
2013,10,03,02,02,0.00
2013,10,03,02,03,0.00
2013,10,03,02,04,0.00
2013,10,03,02,05,0.00
2013,10,03,02,06,0.00
2013,10,03,02,07,0.00
2013,10,03,02,08,0.00
2013,10,03,02,09,0.00
2013,10,03,02,10,0.00
2013,10,03,02,11,0.00
2013,10,03,02,12,0.00
2013,10,03,02,13,0.00
2013,10,03,02,14,0.00
2013,10,03,02,15,0.00
2013,10,03,02,16,0.00
2013,10,03,02,17,0.00
2013,10,03,02,18,0.00
2013,10,03,02,19,0.00
2013,10,03,02,20,0.00
2013,10,03,02,21,0.00
2013,10,03,02,22,0.00
2013,10,03,02,23,0.00
2013,10,03,02,24,0.00
2013,10,03,02,25,0.00
2013,10,03,02,26,0.00
2013,10,03,02,27,0.00
2013,10,03,02,28,0.00
2013,10,03,02,29,0.00
2013,10,03,02,30,0.00
2013,10,03,02,31,0.00
2013,10,03,02,32,0.00
2013,10,03,02,33,0.00
2013,10,03,02,34,0.00
2013,10,03,02,35,0.00
2013,10,03,02,36,0.00
2013,10,03,02,37,0.00
2013,10,03,02,38,0.00
2013,10,03,02,39,0.00
2013,10,03,02,40,0.00
2013,10,03,02,41,0.00
2013,10,03,02,42,0.00
2013,10,03,02,43,0.00
2013,10,03,02,44,0.00
2013,10,03,02,45,0.00
2013,10,03,02,46,0.00
2013,10,03,02,47,0.00
2013,10,03,02,48,0.00
2013,10,03,02,49,0.00
2013,10,03,02,50,0.00
2013,10,03,02,51,0.00
2013,10,03,02,52,0.00
2013,10,03,02,53,0.00
2013,10,03,02,54,0.00
2013,10,03,02,55,0.00
2013,10,03,02,56,0.00
2013,10,03,02,57,0.00
2013,10,03,02,58,0.00
2013,10,03,02,59,0.00
2013,10,03,03,00,0.00
2013,10,03,03,01,0.00
2013,10,03,03,02,0.00
2013,10,03,03,03,0.00
2013,10,03,03,04,0.00
2013,10,03,03,05,0.00
2013,10,03,03,06,0.00
2013,10,03,03,07,0.00
2013,10,03,03,08,0.00
2013,10,03,03,09,0.00
2013,10,03,03,10,0.00
2013,10,03,03,11,0.00
2013,10,03,03,12,0.00
2013,10,03,03,13,0.00
2013,10,03,03,14,0.00
2013,10,03,03,15,0.00
2013,10,03,03,16,0.00
2013,10,03,03,17,0.00
2013,10,03,03,18,0.00
2013,10,03,03,19,0.00
2013,10,03,03,20,0.00
2013,10,03,03,21,0.00
2013,10,03,03,22,0.00
2013,10,03,03,23,0.00
2013,10,03,03,24,0.00
2013,10,03,03,25,0.00
2013,10,03,03,26,0.00
2013,10,03,03,27,0.00
2013,10,03,03,28,0.00
2013,10,03,03,29,0.00
2013,10,03,03,30,0.00
2013,10,03,03,31,0.00
2013,10,03,03,32,0.00
2013,10,03,03,33,0.00
2013,10,03,03,34,0.00
2013,10,03,03,35,0.00
2013,10,03,03,36,0.00
2013,10,03,03,37,0.00
2013,10,03,03,38,0.00
2013,10,03,03,39,0.00
2013,10,03,03,40,0.00
2013,10,03,03,41,0.00
2013,10,03,03,42,0.00
2013,10,03,03,43,0.00
2013,10,03,03,44,0.00
2013,10,03,03,45,0.00
2013,10,03,03,46,0.00
2013,10,03,03,47,0.00
2013,10,03,03,48,0.00
2013,10,03,03,49,0.00
2013,10,03,03,50,0.00
2013,10,03,03,51,0.00
2013,10,03,03,52,0.00
2013,10,03,03,53,0.00
2013,10,03,03,54,0.00
2013,10,03,03,55,0.00
2013,10,03,03,56,0.00
2013,10,03,03,57,0.00
2013,10,03,03,58,0.00
2013,10,03,03,59,0.00
2013,10,03,04,00,0.00
2013,10,03,04,01,0.00
2013,10,03,04,02,0.00
2013,10,03,04,03,0.00
2013,10,03,04,04,0.00
2013,10,03,04,05,0.00
2013,10,03,04,06,0.00
2013,10,03,04,07,0.00
2013,10,03,04,08,0.00
2013,10,03,04,09,0.00
2013,10,03,04,10,0.00
2013,10,03,04,11,0.00
2013,10,03,04,12,0.00
2013,10,03,04,13,0.00
2013,10,03,04,14,0.00
2013,10,03,04,15,0.00
2013,10,03,04,16,0.00
2013,10,03,04,17,0.00
2013,10,03,04,18,0.00
2013,10,03,04,19,0.00
2013,10,03,04,20,0.00
2013,10,03,04,21,0.00
2013,10,03,04,22,0.00
2013,10,03,04,23,0.00
2013,10,03,04,24,0.00
2013,10,03,04,25,0.00
2013,10,03,04,26,0.00
2013,10,03,04,27,0.00
2013,10,03,04,28,0.00
2013,10,03,04,29,0.00
2013,10,03,04,30,0.00
2013,10,03,04,31,0.00
2013,10,03,04,32,0.00
2013,10,03,04,33,0.00
2013,10,03,04,34,0.00
2013,10,03,04,35,0.00
2013,10,03,04,36,0.00
2013,10,03,04,37,0.00
2013,10,03,04,38,0.00
2013,10,03,04,39,0.00
2013,10,03,04,40,0.00
2013,10,03,04,41,0.00
2013,10,03,04,42,0.00
2013,10,03,04,43,0.00
2013,10,03,04,44,0.00
2013,10,03,04,45,0.00
2013,10,03,04,46,0.00
2013,10,03,04,47,0.00
2013,10,03,04,48,0.00
2013,10,03,04,49,0.00
2013,10,03,04,50,0.00
2013,10,03,04,51,0.00
2013,10,03,04,52,0.00
2013,10,03,04,53,0.00
2013,10,03,04,54,0.00
2013,10,03,04,55,0.00
2013,10,03,04,56,0.00
2013,10,03,04,57,0.00
2013,10,03,04,58,0.00
2013,10,03,04,59,0.00
2013,10,03,05,00,0.00
2013,10,03,05,01,0.00
2013,10,03,05,02,0.00
2013,10,03,05,03,0.00
2013,10,03,05,04,0.00
2013,10,03,05,05,0.00
2013,10,03,05,06,0.00
2013,10,03,05,07,0.00
2013,10,03,05,08,0.00
2013,10,03,05,09,0.00
2013,10,03,05,10,0.00
2013,10,03,05,11,0.00
2013,10,03,05,12,0.00
2013,10,03,05,13,0.00
2013,10,03,05,14,0.00
2013,10,03,05,15,0.00
2013,10,03,05,16,0.00
2013,10,03,05,17,0.00
2013,10,03,05,18,0.00
2013,10,03,05,19,0.00
2013,10,03,05,20,0.00
2013,10,03,05,21,0.00
2013,10,03,05,22,0.00
2013,10,03,05,23,0.00
2013,10,03,05,24,0.00
2013,10,03,05,25,0.00
2013,10,03,05,26,0.00
2013,10,03,05,27,0.00
2013,10,03,05,28,0.00
2013,10,03,05,29,0.00
2013,10,03,05,30,0.00
2013,10,03,05,31,0.00
2013,10,03,05,32,0.00
2013,10,03,05,33,0.00
2013,10,03,05,34,0.00
2013,10,03,05,35,0.00
2013,10,03,05,36,0.00
2013,10,03,05,37,0.00
2013,10,03,05,38,0.00
2013,10,03,05,39,0.00
2013,10,03,05,40,0.00
2013,10,03,05,41,0.00
2013,10,03,05,42,0.00
2013,10,03,05,43,0.00
2013,10,03,05,44,0.00
2013,10,03,05,45,0.00
2013,10,03,05,46,0.00
2013,10,03,05,47,0.00
2013,10,03,05,48,0.00
2013,10,03,05,49,0.00
2013,10,03,05,50,0.00
2013,10,03,05,51,0.00
2013,10,03,05,52,0.00
2013,10,03,05,53,0.00
2013,10,03,05,54,0.00
2013,10,03,05,55,0.00
2013,10,03,05,56,0.00
2013,10,03,05,57,0.00
2013,10,03,05,58,0.00
2013,10,03,05,59,0.00
2013,10,03,06,00,0.00
2013,10,03,06,01,0.00
2013,10,03,06,02,0.00
2013,10,03,06,03,0.00
2013,10,03,06,04,0.00
2013,10,03,06,05,0.00
2013,10,03,06,06,0.00
2013,10,03,06,07,0.00
2013,10,03,06,08,0.00
2013,10,03,06,09,0.00
2013,10,03,06,10,0.00
2013,10,03,06,11,0.00
2013,10,03,06,12,0.00
2013,10,03,06,13,0.00
2013,10,03,06,14,0.00
2013,10,03,06,15,0.00
2013,10,03,06,16,0.00
2013,10,03,06,17,0.00
2013,10,03,06,18,0.00
2013,10,03,06,19,0.00
2013,10,03,06,20,0.00
2013,10,03,06,21,0.00
2013,10,03,06,22,0.00
2013,10,03,06,23,0.00
2013,10,03,06,24,0.00
2013,10,03,06,25,0.00
2013,10,03,06,26,0.00
2013,10,03,06,27,0.00
2013,10,03,06,28,0.00
2013,10,03,06,29,0.00
2013,10,03,06,30,0.00
2013,10,03,06,31,0.00
2013,10,03,06,32,0.00
2013,10,03,06,33,0.00
2013,10,03,06,34,0.00
2013,10,03,06,35,0.00
2013,10,03,06,36,0.00
2013,10,03,06,37,0.00
2013,10,03,06,38,0.00
2013,10,03,06,39,0.00
2013,10,03,06,40,0.00
2013,10,03,06,41,0.00
2013,10,03,06,42,0.00
2013,10,03,06,43,0.00
2013,10,03,06,44,0.00
2013,10,03,06,45,0.00
2013,10,03,06,46,0.00
2013,10,03,06,47,0.00
2013,10,03,06,48,0.00
2013,10,03,06,49,0.00
2013,10,03,06,50,0.00
2013,10,03,06,51,0.00
2013,10,03,06,52,0.00
2013,10,03,06,53,0.00
2013,10,03,06,54,0.00
2013,10,03,06,55,0.00
2013,10,03,06,56,0.00
2013,10,03,06,57,0.00
2013,10,03,06,58,0.00
2013,10,03,06,59,0.00
2013,10,03,07,00,0.00
2013,10,03,07,01,0.00
2013,10,03,07,02,0.00
2013,10,03,07,03,0.00
2013,10,03,07,04,0.00
2013,10,03,07,05,0.00
2013,10,03,07,06,0.00
2013,10,03,07,07,0.00
2013,10,03,07,08,0.00
2013,10,03,07,09,0.00
2013,10,03,07,10,0.00
2013,10,03,07,11,0.00
2013,10,03,07,12,0.00
2013,10,03,07,13,0.00
2013,10,03,07,14,0.00
2013,10,03,07,15,0.00
2013,10,03,07,16,0.00
2013,10,03,07,17,2.40
2013,10,03,07,18,5.00
2013,10,03,07,19,5.00
2013,10,03,07,20,5.00
2013,10,03,07,21,5.00
2013,10,03,07,22,5.00
2013,10,03,07,23,5.00
2013,10,03,07,24,6.40
2013,10,03,07,25,7.00
2013,10,03,07,26,7.00
2013,10,03,07,27,7.00
2013,10,03,07,28,7.00
2013,10,03,07,29,7.00
2013,10,03,07,30,7.00
2013,10,03,07,31,8.70
2013,10,03,07,32,9.00
2013,10,03,07,33,9.00
2013,10,03,07,34,9.80
2013,10,03,07,35,11.00
2013,10,03,07,36,11.00
2013,10,03,07,37,11.00
2013,10,03,07,38,11.10
2013,10,03,07,39,12.00
2013,10,03,07,40,12.00
2013,10,03,07,41,12.00
2013,10,03,07,42,12.00
2013,10,03,07,43,13.80
2013,10,03,07,44,18.10
2013,10,03,07,45,18.10
2013,10,03,07,46,16.00
2013,10,03,07,47,16.00
2013,10,03,07,48,16.00
2013,10,03,07,49,18.90
2013,10,03,07,50,22.00
2013,10,03,07,51,26.70
2013,10,03,07,52,24.90
2013,10,03,07,53,19.80
2013,10,03,07,54,19.00
2013,10,03,07,55,19.10
2013,10,03,07,56,21.00
2013,10,03,07,57,21.00
2013,10,03,07,58,21.00
2013,10,03,07,59,23.40
2013,10,03,08,00,28.80
2013,10,03,08,01,23.10
2013,10,03,08,02,21.00
2013,10,03,08,03,21.00
2013,10,03,08,04,21.00
2013,10,03,08,05,21.00
2013,10,03,08,06,21.00
2013,10,03,08,07,21.00
2013,10,03,08,08,21.50
2013,10,03,08,09,23.00
2013,10,03,08,10,23.00
2013,10,03,08,11,23.00
2013,10,03,08,12,23.00
2013,10,03,08,13,23.00
2013,10,03,08,14,23.00
2013,10,03,08,15,23.00
2013,10,03,08,16,23.00
2013,10,03,08,17,23.00
2013,10,03,08,18,24.70
2013,10,03,08,19,32.10
2013,10,03,08,20,44.90
2013,10,03,08,21,44.80
2013,10,03,08,22,40.80
2013,10,03,08,23,36.20
2013,10,03,08,24,30.50
2013,10,03,08,25,38.40
2013,10,03,08,26,32.30
2013,10,03,08,27,26.00
2013,10,03,08,28,26.00
2013,10,03,08,29,26.00
2013,10,03,08,30,26.00
2013,10,03,08,31,26.40
2013,10,03,08,32,29.40
2013,10,03,08,33,32.00
2013,10,03,08,34,29.60
2013,10,03,08,35,28.00
2013,10,03,08,36,28.00
2013,10,03,08,37,28.80
2013,10,03,08,38,32.00
2013,10,03,08,39,32.00
2013,10,03,08,40,30.60
2013,10,03,08,41,31.60
2013,10,03,08,42,32.90
2013,10,03,08,43,33.00
2013,10,03,08,44,33.00
2013,10,03,08,45,32.50
2013,10,03,08,46,32.00
2013,10,03,08,47,38.40
2013,10,03,08,48,66.30
2013,10,03,08,49,90.60
2013,10,03,08,50,89.20
2013,10,03,08,51,125.40
2013,10,03,08,52,173.80
2013,10,03,08,53,194.80
2013,10,03,08,54,198.80
2013,10,03,08,55,181.90
2013,10,03,08,56,150.90
2013,10,03,08,57,147.90
2013,10,03,08,58,137.70
2013,10,03,08,59,126.10
2013,10,03,09,00,135.00
2013,10,03,09,01,124.80
2013,10,03,09,02,137.10
2013,10,03,09,03,194.50
2013,10,03,09,04,236.70
2013,10,03,09,05,183.10
2013,10,03,09,06,134.00
2013,10,03,09,07,139.50
2013,10,03,09,08,130.90
2013,10,03,09,09,125.80
2013,10,03,09,10,113.90
2013,10,03,09,11,100.30
2013,10,03,09,12,147.00
2013,10,03,09,13,202.90
2013,10,03,09,14,226.30
2013,10,03,09,15,244.40
2013,10,03,09,16,248.40
2013,10,03,09,17,251.10
2013,10,03,09,18,254.60
2013,10,03,09,19,254.80
2013,10,03,09,20,260.10
2013,10,03,09,21,263.30
2013,10,03,09,22,260.80
2013,10,03,09,23,265.10
2013,10,03,09,24,269.00
2013,10,03,09,25,270.10
2013,10,03,09,26,273.10
2013,10,03,09,27,275.40
2013,10,03,09,28,277.70
2013,10,03,09,29,279.00
2013,10,03,09,30,275.80
2013,10,03,09,31,275.00
2013,10,03,09,32,290.20
2013,10,03,09,33,294.10
2013,10,03,09,34,300.10
2013,10,03,09,35,305.10
2013,10,03,09,36,307.30
2013,10,03,09,37,322.00
2013,10,03,09,38,265.00
2013,10,03,09,39,297.00
2013,10,03,09,40,324.50
2013,10,03,09,41,326.60
2013,10,03,09,42,346.00
2013,10,03,09,43,264.50
2013,10,03,09,44,124.50
2013,10,03,09,45,92.00
2013,10,03,09,46,97.60
2013,10,03,09,47,173.00
2013,10,03,09,48,105.60
2013,10,03,09,49,107.00
2013,10,03,09,50,235.80
2013,10,03,09,51,309.50
2013,10,03,09,52,298.90
2013,10,03,09,53,108.80
2013,10,03,09,54,114.20
2013,10,03,09,55,106.50
2013,10,03,09,56,99.50
2013,10,03,09,57,99.60
2013,10,03,09,58,105.20
2013,10,03,09,59,115.80
2013,10,03,10,00,119.80
2013,10,03,10,01,120.50
2013,10,03,10,02,143.90
2013,10,03,10,03,134.80
2013,10,03,10,04,124.40
2013,10,03,10,05,112.20
2013,10,03,10,06,106.30
2013,10,03,10,07,103.50
2013,10,03,10,08,102.00
2013,10,03,10,09,100.40
2013,10,03,10,10,102.90
2013,10,03,10,11,119.30
2013,10,03,10,12,148.00
2013,10,03,10,13,148.00
2013,10,03,10,14,344.70
2013,10,03,10,15,423.00
2013,10,03,10,16,421.60
2013,10,03,10,17,418.50
2013,10,03,10,18,420.90
2013,10,03,10,19,423.60
2013,10,03,10,20,430.20
2013,10,03,10,21,433.70
2013,10,03,10,22,427.20
2013,10,03,10,23,453.40
2013,10,03,10,24,454.60
2013,10,03,10,25,448.60
2013,10,03,10,26,473.00
2013,10,03,10,27,280.60
2013,10,03,10,28,188.80
2013,10,03,10,29,195.20
2013,10,03,10,30,217.30
2013,10,03,10,31,281.50
2013,10,03,10,32,289.10
2013,10,03,10,33,280.10
2013,10,03,10,34,295.00
2013,10,03,10,35,295.00
2013,10,03,10,36,295.00
2013,10,03,10,37,295.00
2013,10,03,10,38,201.40
2013,10,03,10,39,170.40
2013,10,03,10,40,179.10
2013,10,03,10,41,186.50
2013,10,03,10,42,198.50
2013,10,03,10,43,207.20
2013,10,03,10,44,209.00
2013,10,03,10,45,210.40
2013,10,03,10,46,203.10
2013,10,03,10,47,187.40
2013,10,03,10,48,172.40
2013,10,03,10,49,158.80
2013,10,03,10,50,147.80
2013,10,03,10,51,138.60
2013,10,03,10,52,135.50
2013,10,03,10,53,137.80
2013,10,03,10,54,140.10
2013,10,03,10,55,143.10
2013,10,03,10,56,147.40
2013,10,03,10,57,159.40
2013,10,03,10,58,264.50
2013,10,03,10,59,557.00
2013,10,03,11,00,557.00
2013,10,03,11,01,306.30
2013,10,03,11,02,174.70
2013,10,03,11,03,177.90
2013,10,03,11,04,155.20
2013,10,03,11,05,146.10
2013,10,03,11,06,152.90
2013,10,03,11,07,172.10
2013,10,03,11,08,198.30
2013,10,03,11,09,589.20
2013,10,03,11,10,610.00
2013,10,03,11,11,610.00
2013,10,03,11,12,610.00
2013,10,03,11,13,384.50
2013,10,03,11,14,381.50
2013,10,03,11,15,383.00
2013,10,03,11,16,383.00
2013,10,03,11,17,544.00
2013,10,03,11,18,705.00
2013,10,03,11,19,512.20
2013,10,03,11,20,441.80
2013,10,03,11,21,327.20
2013,10,03,11,22,302.70
2013,10,03,11,23,267.50
2013,10,03,11,24,244.00
2013,10,03,11,25,224.20
2013,10,03,11,26,216.80
2013,10,03,11,27,227.80
2013,10,03,11,28,248.00
2013,10,03,11,29,248.00
2013,10,03,11,30,278.80
2013,10,03,11,31,280.20
2013,10,03,11,32,300.10
2013,10,03,11,33,499.00
2013,10,03,11,34,397.50
2013,10,03,11,35,265.70
2013,10,03,11,36,272.00
2013,10,03,11,37,272.00
2013,10,03,11,38,220.50
2013,10,03,11,39,208.10
2013,10,03,11,40,216.80
2013,10,03,11,41,224.60
2013,10,03,11,42,276.40
2013,10,03,11,43,294.90
2013,10,03,11,44,295.00
2013,10,03,11,45,295.00
2013,10,03,11,46,295.00
2013,10,03,11,47,295.00
2013,10,03,11,48,305.50
2013,10,03,11,49,378.80
2013,10,03,11,50,370.50
2013,10,03,11,51,331.20
2013,10,03,11,52,317.50
2013,10,03,11,53,323.00
2013,10,03,11,54,323.00
2013,10,03,11,55,297.20
2013,10,03,11,56,281.60
2013,10,03,11,57,274.20
2013,10,03,11,58,270.10
2013,10,03,11,59,274.40
2013,10,03,12,00,276.50
2013,10,03,12,01,268.70
2013,10,03,12,02,283.00
2013,10,03,12,03,283.00
2013,10,03,12,04,283.00
2013,10,03,12,05,283.00
2013,10,03,12,06,283.00
2013,10,03,12,07,721.00
2013,10,03,12,08,744.00
2013,10,03,12,09,582.00
2013,10,03,12,10,342.50
2013,10,03,12,11,371.30
2013,10,03,12,12,383.00
2013,10,03,12,13,360.80
2013,10,03,12,14,326.80
2013,10,03,12,15,304.10
2013,10,03,12,16,290.30
2013,10,03,12,17,256.50
2013,10,03,12,18,237.50
2013,10,03,12,19,224.20
2013,10,03,12,20,212.80
2013,10,03,12,21,204.20
2013,10,03,12,22,200.00
2013,10,03,12,23,202.40
2013,10,03,12,24,202.50
2013,10,03,12,25,206.00
2013,10,03,12,26,215.80
2013,10,03,12,27,227.90
2013,10,03,12,28,245.00
2013,10,03,12,29,260.80
2013,10,03,12,30,269.70
2013,10,03,12,31,271.80
2013,10,03,12,32,268.00
2013,10,03,12,33,261.90
2013,10,03,12,34,268.50
2013,10,03,12,35,278.00
2013,10,03,12,36,278.00
2013,10,03,12,37,303.20
2013,10,03,12,38,781.50
2013,10,03,12,39,784.10
2013,10,03,12,40,802.50
2013,10,03,12,41,834.80
2013,10,03,12,42,855.00
2013,10,03,12,43,858.00
2013,10,03,12,44,875.90
2013,10,03,12,45,931.20
2013,10,03,12,46,939.00
2013,10,03,12,47,939.00
2013,10,03,12,48,543.80
2013,10,03,12,49,398.50
2013,10,03,12,50,406.20
2013,10,03,12,51,407.60
2013,10,03,12,52,371.00
2013,10,03,12,53,371.00
2013,10,03,12,54,371.00
2013,10,03,12,55,371.00
2013,10,03,12,56,371.00
2013,10,03,12,57,385.90
2013,10,03,12,58,380.80
2013,10,03,12,59,318.50
2013,10,03,13,00,322.50
2013,10,03,13,01,769.70
2013,10,03,13,02,779.00
2013,10,03,13,03,779.00
2013,10,03,13,04,779.00
2013,10,03,13,05,745.10
2013,10,03,13,06,733.00
2013,10,03,13,07,725.60
2013,10,03,13,08,688.60
2013,10,03,13,09,666.70
2013,10,03,13,10,643.60
2013,10,03,13,11,641.90
2013,10,03,13,12,652.80
2013,10,03,13,13,652.40
2013,10,03,13,14,654.00
2013,10,03,13,15,654.00
2013,10,03,13,16,655.30
2013,10,03,13,17,654.40
2013,10,03,13,18,654.10
2013,10,03,13,19,655.20
2013,10,03,13,20,648.80
2013,10,03,13,21,644.00
2013,10,03,13,22,649.50
2013,10,03,13,23,659.60
2013,10,03,13,24,663.00
2013,10,03,13,25,665.00
2013,10,03,13,26,666.50
2013,10,03,13,27,662.50
2013,10,03,13,28,658.20
2013,10,03,13,29,651.10
2013,10,03,13,30,642.20
2013,10,03,13,31,629.80
2013,10,03,13,32,628.10
2013,10,03,13,33,629.90
2013,10,03,13,34,633.20
2013,10,03,13,35,635.80
2013,10,03,13,36,634.70
2013,10,03,13,37,631.70
2013,10,03,13,38,628.00
2013,10,03,13,39,629.80
2013,10,03,13,40,631.00
2013,10,03,13,41,628.50
2013,10,03,13,42,621.40
2013,10,03,13,43,619.90
2013,10,03,13,44,622.00
2013,10,03,13,45,624.40
2013,10,03,13,46,626.00
2013,10,03,13,47,628.00
2013,10,03,13,48,631.60
2013,10,03,13,49,636.70
2013,10,03,13,50,641.40
2013,10,03,13,51,644.20
2013,10,03,13,52,641.20
2013,10,03,13,53,631.30
2013,10,03,13,54,628.20
2013,10,03,13,55,629.70
2013,10,03,13,56,632.00
2013,10,03,13,57,631.70
2013,10,03,13,58,628.60
2013,10,03,13,59,628.20
2013,10,03,14,00,618.70
2013,10,03,14,01,607.50
2013,10,03,14,02,598.30
2013,10,03,14,03,594.00
2013,10,03,14,04,592.40
2013,10,03,14,05,597.10
2013,10,03,14,06,612.00
2013,10,03,14,07,632.40
2013,10,03,14,08,652.70
2013,10,03,14,09,649.20
2013,10,03,14,10,649.20
2013,10,03,14,11,654.50
2013,10,03,14,12,636.00
2013,10,03,14,13,636.00
2013,10,03,14,14,636.00
2013,10,03,14,15,447.70
2013,10,03,14,16,329.60
2013,10,03,14,17,425.30
2013,10,03,14,18,509.50
2013,10,03,14,19,566.80
2013,10,03,14,20,587.60
2013,10,03,14,21,576.30
2013,10,03,14,22,567.70
2013,10,03,14,23,544.90
2013,10,03,14,24,529.50
2013,10,03,14,25,513.20
2013,10,03,14,26,498.40
2013,10,03,14,27,485.00
2013,10,03,14,28,464.10
2013,10,03,14,29,445.10
2013,10,03,14,30,448.70
2013,10,03,14,31,460.00
2013,10,03,14,32,466.00
2013,10,03,14,33,466.00
2013,10,03,14,34,455.60
2013,10,03,14,35,446.00
2013,10,03,14,36,450.00
2013,10,03,14,37,451.00
2013,10,03,14,38,453.30
2013,10,03,14,39,454.80
2013,10,03,14,40,461.40
2013,10,03,14,41,457.80
2013,10,03,14,42,462.80
2013,10,03,14,43,471.00
2013,10,03,14,44,486.40
2013,10,03,14,45,508.80
2013,10,03,14,46,516.80
2013,10,03,14,47,536.20
2013,10,03,14,48,547.40
2013,10,03,14,49,558.00
2013,10,03,14,50,565.50
2013,10,03,14,51,572.20
2013,10,03,14,52,577.50
2013,10,03,14,53,572.80
2013,10,03,14,54,563.90
2013,10,03,14,55,557.70
2013,10,03,14,56,549.80
2013,10,03,14,57,551.00
2013,10,03,14,58,526.00
2013,10,03,14,59,519.20
2013,10,03,15,00,515.00
2013,10,03,15,01,509.80
2013,10,03,15,02,508.00
2013,10,03,15,03,504.40
2013,10,03,15,04,501.50
2013,10,03,15,05,497.40
2013,10,03,15,06,478.00
2013,10,03,15,07,466.10
2013,10,03,15,08,449.20
2013,10,03,15,09,434.60
2013,10,03,15,10,423.10
2013,10,03,15,11,414.50
2013,10,03,15,12,405.60
2013,10,03,15,13,401.80
2013,10,03,15,14,394.20
2013,10,03,15,15,390.10
2013,10,03,15,16,386.60
2013,10,03,15,17,386.10
2013,10,03,15,18,384.50
2013,10,03,15,19,376.50
2013,10,03,15,20,389.80
2013,10,03,15,21,381.20
2013,10,03,15,22,374.80
2013,10,03,15,23,374.30
2013,10,03,15,24,384.00
2013,10,03,15,25,388.00
2013,10,03,15,26,396.80
2013,10,03,15,27,399.00
2013,10,03,15,28,399.40
2013,10,03,15,29,398.50
2013,10,03,15,30,386.90
2013,10,03,15,31,370.70
2013,10,03,15,32,355.60
2013,10,03,15,33,352.80
2013,10,03,15,34,358.50
2013,10,03,15,35,357.80
2013,10,03,15,36,351.00
2013,10,03,15,37,350.20
2013,10,03,15,38,350.40
2013,10,03,15,39,347.60
2013,10,03,15,40,336.70
2013,10,03,15,41,344.30
2013,10,03,15,42,344.40
2013,10,03,15,43,350.00
2013,10,03,15,44,358.10
2013,10,03,15,45,360.00
2013,10,03,15,46,364.60
2013,10,03,15,47,369.10
2013,10,03,15,48,382.00
2013,10,03,15,49,384.20
2013,10,03,15,50,374.70
2013,10,03,15,51,369.00
2013,10,03,15,52,366.20
2013,10,03,15,53,360.00
2013,10,03,15,54,360.00
2013,10,03,15,55,363.20
2013,10,03,15,56,370.40
2013,10,03,15,57,373.20
2013,10,03,15,58,374.70
2013,10,03,15,59,374.50
2013,10,03,16,00,371.70
2013,10,03,16,01,369.40
2013,10,03,16,02,362.50
2013,10,03,16,03,363.50
2013,10,03,16,04,357.20
2013,10,03,16,05,344.20
2013,10,03,16,06,333.10
2013,10,03,16,07,326.00
2013,10,03,16,08,314.20
2013,10,03,16,09,299.50
2013,10,03,16,10,289.20
2013,10,03,16,11,279.50
2013,10,03,16,12,267.70
2013,10,03,16,13,253.20
2013,10,03,16,14,244.90
2013,10,03,16,15,233.30
2013,10,03,16,16,219.60
2013,10,03,16,17,211.40
2013,10,03,16,18,207.70
2013,10,03,16,19,204.60
2013,10,03,16,20,202.10
2013,10,03,16,21,202.50
2013,10,03,16,22,204.00
2013,10,03,16,23,205.10
2013,10,03,16,24,208.10
2013,10,03,16,25,213.20
2013,10,03,16,26,216.80
2013,10,03,16,27,220.90
2013,10,03,16,28,224.80
2013,10,03,16,29,228.20
2013,10,03,16,30,229.00
2013,10,03,16,31,229.00
2013,10,03,16,32,229.20
2013,10,03,16,33,230.00
2013,10,03,16,34,229.50
2013,10,03,16,35,229.00
2013,10,03,16,36,229.80
2013,10,03,16,37,231.90
2013,10,03,16,38,234.00
2013,10,03,16,39,233.30
2013,10,03,16,40,232.00
2013,10,03,16,41,232.00
2013,10,03,16,42,235.00
2013,10,03,16,43,236.10
2013,10,03,16,44,236.80
2013,10,03,16,45,236.40
2013,10,03,16,46,238.10
2013,10,03,16,47,240.30
2013,10,03,16,48,243.40
2013,10,03,16,49,250.20
2013,10,03,16,50,256.80
2013,10,03,16,51,262.70
2013,10,03,16,52,266.50
2013,10,03,16,53,270.30
2013,10,03,16,54,273.50
2013,10,03,16,55,281.20
2013,10,03,16,56,285.80
2013,10,03,16,57,290.40
2013,10,03,16,58,295.70
2013,10,03,16,59,297.00
2013,10,03,17,00,294.60
2013,10,03,17,01,283.80
2013,10,03,17,02,271.00
2013,10,03,17,03,261.10
2013,10,03,17,04,250.90
2013,10,03,17,05,239.00
2013,10,03,17,06,224.90
2013,10,03,17,07,217.60
2013,10,03,17,08,215.40
2013,10,03,17,09,214.00
2013,10,03,17,10,212.20
2013,10,03,17,11,211.00
2013,10,03,17,12,209.10
2013,10,03,17,13,206.80
2013,10,03,17,14,201.20
2013,10,03,17,15,184.60
2013,10,03,17,16,175.60
2013,10,03,17,17,177.00